Regional Weather Roundup
Issued by NWS Sioux Falls, SD

Home | Current Version | Previous Version | Text Only | Print | Product List | Glossary On
Versions: 1 2 3 4 5 6 7 8 9 10 11 12 13 14 15 16 17 18 19 20 21 22 23 24 25 26 27 28 29 30 31 32 33 34 35 36 37 38 39 40 41 42 43 44 45 46 47 48 49 50
000
ASUS43 KFSD 231810
RWRFSD

WEATHER ROUNDUP FOR SE SOUTH DAKOTA/SW MINNESOTA/NW IOWA
NATIONAL WEATHER SERVICE SIOUX FALLS SD
100 PM CDT TUE SEP 23 2014

NOTE: "FAIR" INDICATES FEW OR NO CLOUDS BELOW 12,000 FEET WITH NO
SIGNIFICANT WEATHER AND OR OBSTRUCTIONS TO VISIBILITY.


SDZ038>040-050-052>070-231900-
SOUTHEAST SOUTH DAKOTA

CITY           SKY/WX    TMP DP  RH WIND       PRES   REMARKS
CHAMBERLAIN    CLOUDY    62  56  80 S17G23    29.96F
6HR MIN TEMP:  58; 6HR MAX TEMP:  62;

HURON          LGT RAIN  57  55  93 SE15G23   30.02F
6HR MIN TEMP:  56; 6HR MAX TEMP:  60; 6HR PCP:  0.47;

MADISON        LGT RAIN  55  55 100 S10G18    30.10F
MITCHELL       CLOUDY    58  56  93 SE17      30.04F
6HR MIN TEMP:  57; 6HR MAX TEMP:  60; 6HR PCP:  0.71;

SIOUX FALLS    CLOUDY    59  56  89 SE9       30.11F
6HR MIN TEMP:  57; 6HR MAX TEMP:  59; 6HR PCP:  0.10;

WINNER         CLOUDY    67  56  67 S21G28    29.93F
YANKTON        CLOUDY    57  55  94 SE12G20   30.08F
$$

MNZ071-072-080-081-089-090-097-098-231900-
SOUTHWEST MINNESOTA

CITY           SKY/WX    TMP DP  RH WIND       PRES   REMARKS
FAIRMONT       CLOUDY    70  50  49 SE20      30.18F
JACKSON        CLOUDY    68  50  52 S13       30.18F
LUVERNE        CLOUDY    61  55  82 SE9       30.14S
MARSHALL       CLOUDY    59  52  77 SE8       30.14F
6HR MIN TEMP:  54; 6HR MAX TEMP:  63; 6HR PCP:  0.01;

MONTEVIDEO     LGT RAIN  64  52  63 SW8       30.16S
PIPESTONE      LGT RAIN  57  55  94 S9        30.13F
REDWOOD FALLS  CLOUDY    68  53  58 S16       30.16F
TRACY          LGT RAIN  59  57  91 S8        30.16S
WINDOM         CLOUDY    64  54  68 SE8G17    30.17F
WORTHINGTON    CLOUDY    61  55  82 S8G17     30.17F
$$

IAZ001>003-012>014-020>022-031-032-NEZ013-014-SDZ071-231900-
NORTHWEST IOWA

CITY           SKY/WX    TMP DP  RH WIND       PRES   REMARKS
CHEROKEE       LGT RAIN  62  57  85 S12       30.17S
DENISON        CLOUDY    61  55  82 S9        30.18R
ESTHERVILLE    CLOUDY    69  50  50 S21G26    30.18F
LE MARS        DRIZZLE   61  57  88 S16       30.15S
ORANGE CITY    LGT RAIN  63  54  72 S15G21    30.15S
SHELDON        CLOUDY    63  57  82 S15       30.14F
SIOUX CITY     LGT RAIN  60  57  89 SE12      30.14F
6HR MIN TEMP:  57; 6HR MAX TEMP:  62; 6HR PCP:  0.12;

SPENCER        CLOUDY    65  53  65 S12       30.17F
6HR MIN TEMP:  52; 6HR MAX TEMP:  65; 6HR PCP: TRACE;

$$

ABBREVIATIONS USED IN REMARKS
   TC - TEMPERATURE IN CELSIUS
  WCI - WIND CHILL INDEX
   HX - HEAT INDEX
  VSB - VISIBILITY




USA.gov is the U.S. government's official web portal to all federal, state and local government web resources and services.